Flag for Canada Weather past 2 weeks in Pond Inlet, Nunavut, Canada

Now
37 °F

Sunny.


Feels Like: 35 °F
Forecast: 27 / 38 °F
Wind: 3 mph from Northwest

Location: Pond Inlet

Current Time: Sep 1, 2015 at 11:06:45 AM

Latest Report: Sep 1, 2015 at 10:00 AM


Visibility: 6 mi

Pressure: 30.01 "Hg

Humidity: 70%

Dew point: 28 °F

Location of Pond InletLocation

Historic Weather in Pond Inlet — Graph

°F

Pond Inlet temperature yesterday

Maximum temperature yesterday: 43 °F (at 12:00 PM)
Minimum temperature yesterday: 28 °F (at 5:00 AM)
Average temperature yesterday: 36 °F

Past Weeks' High & Low Weather Summary

 TemperatureHumidityPressure
High50 °F (Aug 17, 5:00 PM)100% (Aug 25, 7:00 AM)30.35 "Hg (Aug 25, 7:00 AM)
Low27 °F (Sep 1, 2:00 AM)42% (Aug 31, 4:00 PM)29.52 "Hg (Aug 17, 3:00 PM)
Average40 °F78%30.02 "Hg
* Reported Aug 17 10:00 AM — Sep 1 10:00 AM, Pond Inlet, Weather by CustomWeather, © 2015

Note: Actual official high and low records may vary slightly from our data, if they occured in-between our weather recording intervals... More about our weather records

Advertising

Pond Inlet weather history for previous 24 hours

 ConditionsComfort  
Time TempWeatherWind HumidityBarometerVisibility
10:00 AM
Tue, Sep 1
37 °FSunny.3 mph70%30.01 "Hg6 mi
9:00 AM37 °FPartly sunny.3 mph65%30.02 "Hg9 mi
8:00 AM36 °FSunny.No wind75%30.03 "Hg9 mi
7:00 AM32 °FPartly sunny.3 mph87%30.03 "Hg9 mi
6:00 AM27 °FPartly sunny.5 mph93%30.03 "Hg9 mi
5:00 AM28 °FSunny.No wind86%30.03 "Hg9 mi
4:00 AM27 °FClear.No wind86%30.03 "Hg9 mi
3:00 AM28 °FClear.2 mph86%30.03 "Hg9 mi
2:00 AM27 °FClear.5 mph86%30.03 "Hg9 mi
1:00 AM30 °FClear.2 mph80%30.03 "Hg9 mi
12:00 AM30 °FClear.5 mph69%30.03 "Hg9 mi
11:00 PM
Mon, Aug 31
30 °FClear.2 mph69%30.04 "Hg9 mi
10:00 PM32 °FClear.5 mph60%30.05 "Hg9 mi
9:00 PM37 °FClear.6 mph65%30.05 "Hg9 mi
8:00 PM39 °FSunny.9 mph61%30.05 "Hg9 mi
7:00 PM41 °FSunny.8 mph61%30.04 "Hg9 mi
6:00 PM41 °FPassing clouds.10 mph57%30.03 "Hg30 mi
5:00 PM43 °FPassing clouds.10 mph53%30.03 "Hg30 mi
4:00 PM43 °FPassing clouds.9 mph42%30.04 "Hg30 mi
3:00 PM43 °FPassing clouds.10 mph49%30.04 "Hg30 mi
2:00 PM43 °FPassing clouds.8 mph49%30.04 "Hg30 mi
1:00 PM43 °FPassing clouds.13 mph49%30.03 "Hg30 mi
12:00 PM43 °FScattered clouds.14 mph49%30.03 "Hg30 mi
11:00 AM39 °FScattered clouds.6 mph61%30.03 "Hg40 mi
Weather by CustomWeather, © 2015

See weather overviewHow to use our weather pages